FENGYUN 1C DEB

基本信息
目录编号:
31329
目录名称:
FENGYUN 1C DEB
国际标识:
1999-025BQH
轨道中心:
EARTH
物体状态:
在轨
发射日期:
1999-05-10 UTC
轨道信息
数据来源: 国际轨道数据
星历时间: 2026-09-07T15:21:30+0800
半长轴: 7034.986km
偏心率: 0.0050237
轨道倾角: 98.907°
近地点辐角: 334.821°
升交点赤经: 265.628°
平近点角: 25.054°
近地点: 621.507km
远地点: 692.191km
周期: 97.871分钟
每日圈数: 14.713227
详细信息
发射场:
TSC
轨道高度:
LEO
数据来源:
AOE Integration Group
参考系:
TEME
时间系统:
UTC
历元类型:
SGP4
2D轨道图
3D轨道图
轨道高度分析图
轨道倾角分析图
轨道综合分析图
查看轨道综合分析图